Punkttermin-Prognose für Heusenstamm
Modell: MOSMIX (Deutscher Wetterdienst)
Modelllaufzeit: 04 UTC
Aktualisierung: stündlich
Montag - 26.08.2019
| Wetter - | Temperaturen | Wind | Niederschlag | Druck | Sonne
Zeit GZ | Bewölkung | TT MAX MIN TG TM | DD FF FX1 | RR1 RR24 | PPPP | SS1 SS24
02:00 Uhr | --- | --- --- --- --- --- | --- --- --- | --- | --- | ---
03:00 Uhr | --- | --- --- --- --- --- | --- --- --- | --- | --- | ---
04:00 Uhr | --- | --- --- --- --- --- | --- --- --- | --- | --- | ---
05:00 Uhr | --- | --- --- --- --- --- | --- --- --- | --- | --- | ---
06:00 Uhr | --- | --- --- --- --- --- | --- --- --- | --- | --- | ---
07:00 Uhr | leicht bewölkt | 17 --- --- 16 --- | O 2 --- | 0.0 | 1019 | 0.1
08:00 Uhr | leicht bewölkt | 19 --- 17 20 --- | O 2 --- | 0.0 | 1019 | 0.5
09:00 Uhr | leicht bewölkt | 22 --- --- 24 --- | O 4 --- | 0.0 | 1019 | 0.8
10:00 Uhr | leicht bewölkt | 24 --- --- 27 --- | O 4 --- | 0.0 | 1019 | 0.9
11:00 Uhr | leicht bewölkt | 26 --- --- 30 --- | O 6 --- | 0.0 | 1019 | 1.0
12:00 Uhr | leicht bewölkt | 28 --- --- 33 --- | O 6 --- | 0.0 | 1018 | 1.0
13:00 Uhr | leicht bewölkt | 29 --- --- 35 --- | O 7 --- | 0.0 | 1018 | 1.0
14:00 Uhr | leicht bewölkt | 30 --- --- 36 --- | O 7 --- | 0.0 | 1017 | 0.9
15:00 Uhr | leicht bewölkt | 31 --- --- 37 --- | O 7 --- | 0.0 | 1017 | 0.9
16:00 Uhr | leicht bewölkt | 31 --- --- 36 --- | O 7 --- | 0.0 | 1016 | 0.8
17:00 Uhr | leicht bewölkt | 31 --- --- 35 --- | O 7 --- | 0.0 | 1016 | 0.8
18:00 Uhr | leicht bewölkt | 31 --- --- 33 --- | O 7 --- | 0.0 | 1016 | 0.7
19:00 Uhr | leicht bewölkt | 29 --- --- 30 --- | O 6 --- | 0.0 | 1016 | 0.6
20:00 Uhr | leicht bewölkt | 28 33 --- 27 --- | O 6 --- | 0.0 | 1016 | 0.4
21:00 Uhr | leicht bewölkt | 26 --- --- 24 --- | O 4 --- | 0.0 | 1016 | 0.2
22:00 Uhr | leicht bewölkt | 24 --- --- 22 --- | O 4 --- | 0.0 | 1017 | 0.0
23:00 Uhr | leicht bewölkt | 22 --- --- 21 --- | O 4 --- | 0.0 | 1017 | 0.0
Dienstag - 27.08.2019
| Wetter - | Temperaturen | Wind | Niederschlag | Druck | Sonne
Zeit GZ | Bewölkung | TT MAX MIN TG TM | DD FF FX1 | RR1 RR24 | PPPP | SS1 SS24
00:00 Uhr | wolkig | 21 --- --- 20 --- | O 4 --- | 0.0 | 1017 | 0.0
01:00 Uhr | wolkig | 20 --- --- 19 --- | NO 4 --- | 0.0 | 1017 | 0.0
02:00 Uhr | leicht bewölkt | 20 --- --- 18 --- | NO 2 --- | 0.0 | 1017 | 0.0
03:00 Uhr | wolkig | 19 --- --- 17 --- | NO 2 --- | 0.0 | 1017 | 0.0
04:00 Uhr | wolkig | 19 --- --- 17 --- | O 2 --- | 0.0 | 1017 | 0.0
05:00 Uhr | wolkig | 18 --- --- 17 --- | NO 2 --- | 0.0 | 1017 | 0.0
06:00 Uhr | wolkig | 18 --- --- 17 --- | O 2 --- | 0.0 | 1017 | 0.0
07:00 Uhr | leicht bewölkt | 18 --- --- 18 --- | O 2 --- | 0.0 | 1017 | 0.1
08:00 Uhr | leicht bewölkt | 20 --- 17 20 --- | O 2 --- | 0.0 | 1018 | 0.4
09:00 Uhr | leicht bewölkt | 22 --- --- 24 --- | O 4 --- | 0.0 | 1018 | 0.6
10:00 Uhr | leicht bewölkt | 24 --- --- 27 --- | O 6 --- | 0.0 | 1018 | 0.8
11:00 Uhr | leicht bewölkt | 26 --- --- 30 --- | SO 6 --- | 0.0 | 1017 | 0.9
12:00 Uhr | leicht bewölkt | 27 --- --- 33 --- | SO 7 --- | 0.0 | 1017 | 0.9
13:00 Uhr | leicht bewölkt | 29 --- --- 35 --- | SO 7 --- | 0.0 | 1017 | 0.9
14:00 Uhr | leicht bewölkt | 30 --- --- 36 --- | SO 7 --- | 0.0 | 1016 | 0.9
15:00 Uhr | leicht bewölkt | 31 --- --- 36 --- | SO 7 --- | 0.0 | 1016 | 0.9
16:00 Uhr | leicht bewölkt | 32 --- --- 36 --- | SO 7 --- | 0.0 | 1015 | 0.8
17:00 Uhr | leicht bewölkt | 32 --- --- 36 --- | SO 7 --- | 0.0 | 1015 | 0.8
18:00 Uhr | wolkig | 31 --- --- 33 --- | SO 7 --- | 0.0 | 1014 | 0.7
19:00 Uhr | wolkig | 30 --- --- 31 --- | O 6 --- | 0.0 | 1014 | 0.6
20:00 Uhr | wolkig | 28 33 --- 27 --- | O 4 --- | 0.0 | 1014 | 0.4
21:00 Uhr | wolkig | 26 --- --- 24 --- | O 4 --- | 0.0 | 1015 | 0.2
22:00 Uhr | wolkig | 24 --- --- 22 --- | O 4 --- | 0.0 | 1015 | 0.0
23:00 Uhr | wolkig | 22 --- --- 21 24 | O 4 --- | 0.0 0.0 | 1016 | 0.0 9.8
Mittwoch - 28.08.2019
| Wetter - | Temperaturen | Wind | Niederschlag | Druck | Sonne
Zeit GZ | Bewölkung | TT MAX MIN TG TM | DD FF FX1 | RR1 RR24 | PPPP | SS1 SS24
00:00 Uhr | wolkig | 21 --- --- 20 --- | O 4 --- | 0.0 | 1016 | 0.0
01:00 Uhr | wolkig | 21 --- --- 19 --- | O 2 --- | 0.0 | 1016 | 0.0
02:00 Uhr | wolkig | 20 --- --- 18 --- | O 2 --- | 0.0 | 1016 | 0.0
03:00 Uhr | wolkig | 19 --- --- 18 --- | O 2 --- | 0.0 | 1016 | 0.0
04:00 Uhr | wolkig | 19 --- --- 18 --- | O 2 --- | 0.0 | 1016 | 0.0
05:00 Uhr | wolkig | 18 --- --- 17 --- | O 2 --- | 0.0 | 1016 | 0.0
06:00 Uhr | wolkig | 18 --- --- 17 --- | O 2 --- | 0.0 | 1016 | 0.0
07:00 Uhr | wolkig | 19 --- --- 18 --- | O 2 --- | 0.0 | 1016 | 0.1
08:00 Uhr | wolkig | 20 --- 17 20 --- | O 4 --- | 0.0 | 1016 | 0.3
09:00 Uhr | wolkig | 22 --- --- 23 --- | O 4 --- | 0.0 | 1016 | 0.5
10:00 Uhr | wolkig | 24 --- --- 27 --- | SO 6 --- | 0.0 | 1016 | 0.6
11:00 Uhr | wolkig | 26 --- --- 30 --- | SO 6 --- | 0.0 | 1016 | 0.8
12:00 Uhr | wolkig | 29 --- --- 33 --- | S 6 --- | 0.0 | 1016 | 0.8
13:00 Uhr | wolkig | 30 --- --- 35 --- | S 6 --- | 0.0 | 1015 | 0.8
14:00 Uhr | wolkig | 31 --- --- 37 --- | S 7 --- | 0.0 | 1015 | 0.8
15:00 Uhr | wolkig | 32 --- --- 37 --- | S 7 --- | 0.0 | 1014 | 0.9
16:00 Uhr | wolkig | 32 --- --- 36 --- | SW 7 --- | 0.0 | 1014 | 0.8
17:00 Uhr | wolkig | 32 --- --- 36 --- | SW 7 --- | 0.0 | 1014 | 0.8
18:00 Uhr | wolkig | 31 --- --- 34 --- | S 7 --- | 0.0 | 1013 | 0.7
19:00 Uhr | wolkig | 30 --- --- 31 --- | S 6 --- | 0.0 | 1013 | 0.6
20:00 Uhr | wolkig | 28 34 --- 27 --- | SO 4 --- | 0.0 | 1013 | 0.4
21:00 Uhr | wolkig | 26 --- --- 24 --- | SO 4 --- | 0.0 | 1014 | 0.2
22:00 Uhr | wolkig | 24 --- --- 22 --- | SO 4 --- | 0.0 | 1014 | 0.0
23:00 Uhr | wolkig | 22 --- --- 20 25 | O 4 --- | 0.0 0.0 | 1014 | 0.0 9.0
Donnerstag - 29.08.2019
| Wetter - | Temperaturen | Wind | Niederschlag | Druck | Sonne
Zeit GZ | Bewölkung | TT MAX MIN TG TM | DD FF FX3 | RR3 RR24 | PPPP | SS3 SS24
02:00 Uhr | wolkig | 20 --- --- 18 --- | SO 2 --- | 0.0 | 1014 | 0.0
05:00 Uhr | wolkig | 19 --- --- 17 --- | O 4 --- | 0.0 | 1015 | 0.0
08:00 Uhr | wolkig | 20 --- 18 20 --- | S 4 --- | 0.0 | 1016 | 0.3
11:00 Uhr | wolkig | 25 --- --- 27 --- | SW 7 --- | 0.0 | 1017 | 1.2
14:00 Uhr | wolkig | 27 --- --- 30 --- | SW 9 --- | 0.0 | 1017 | 1.6
17:00 Uhr | wolkig | 28 --- --- 29 --- | W 9 --- | 0.0 | 1017 | 1.4
20:00 Uhr | wolkig | 24 29 --- 23 --- | W 7 --- | 0.0 | 1018 | 0.7
23:00 Uhr | wolkig | 21 --- --- 20 23 | W 6 --- | 0.0 0.0 | 1020 | 0.0 5.2
Freitag - 30.08.2019
| Wetter - | Temperaturen | Wind | Niederschlag | Druck | Sonne
Zeit GZ | Bewölkung | TT MAX MIN TG TM | DD FF FX3 | RR3 RR24 | PPPP | SS3 SS24
02:00 Uhr | wolkig | 19 --- --- 18 --- | NW 4 --- | 0.0 | 1020 | 0.0
05:00 Uhr | wolkig | 18 --- --- 16 --- | NW 4 --- | 0.0 | 1021 | 0.0
08:00 Uhr | wolkig | 18 --- 16 19 --- | NW 4 --- | 0.0 | 1022 | 0.4
11:00 Uhr | wolkig | 22 --- --- 25 --- | W 7 --- | 0.0 | 1022 | 1.8
14:00 Uhr | wolkig | 25 --- --- 29 --- | W 9 --- | 0.0 | 1021 | 2.1
17:00 Uhr | wolkig | 26 --- --- 28 --- | W 9 --- | 0.0 | 1019 | 2.0
20:00 Uhr | wolkig | 23 28 --- 22 --- | NW 6 --- | 0.0 | 1019 | 1.4
23:00 Uhr | wolkig | 18 --- --- 17 21 | N 4 --- | 0.0 0.0 | 1020 | 0.2 7.8
Samstag - 31.08.2019
| Wetter - | Temperaturen | Wind | Niederschlag | Druck | Sonne
Zeit GZ | Bewölkung | TT MAX MIN TG TM | DD FF FX3 | RR3 RR24 | PPPP | SS3 SS24
02:00 Uhr | wolkig | 16 --- --- 14 --- | NO 2 --- | 0.0 | 1020 | 0.0
05:00 Uhr | wolkig | 15 --- --- 13 --- | NO 2 --- | 0.0 | 1019 | 0.0
08:00 Uhr | wolkig | 16 --- 14 16 --- | NO 4 --- | 0.0 | 1019 | 0.5
11:00 Uhr | wolkig | 21 --- --- 24 --- | SO 7 --- | 0.0 | 1018 | 2.0
14:00 Uhr | wolkig | 25 --- --- 30 --- | SW 9 --- | 0.0 | 1016 | 2.5
17:00 Uhr | wolkig | 26 --- --- 30 --- | SW 9 --- | 0.0 | 1015 | 2.2
20:00 Uhr | wolkig | 23 28 --- 22 --- | S 6 --- | 0.0 | 1014 | 1.7
23:00 Uhr | wolkig | 18 --- --- 17 20 | SO 4 --- | 0.0 0.0 | 1014 | 0.2 9.0
Sonntag - 01.09.2019
| Wetter - | Temperaturen | Wind | Niederschlag | Druck | Sonne
Zeit GZ | Bewölkung | TT MAX MIN TG TM | DD FF FX3 | RR3 RR24 | PPPP | SS3 SS24
02:00 Uhr | wolkig | 17 --- --- 15 --- | SO 4 --- | 0.0 | 1014 | 0.0
05:00 Uhr | wolkig | 15 --- --- 14 --- | S 4 --- | 0.0 | 1012 | 0.0
08:00 Uhr | wolkig | 16 --- 14 16 --- | S 4 --- | 0.0 | 1013 | 0.3
11:00 Uhr | wolkig | 20 --- --- 22 --- | SW 7 --- | 0.0 | 1013 | 1.6
14:00 Uhr | wolkig | 23 --- --- 27 --- | SW 11 --- | 0.0 | 1014 | 1.7
17:00 Uhr | wolkig | 23 --- --- 24 --- | SW 11 --- | 0.0 | 1013 | 1.6
20:00 Uhr | wolkig | 20 25 --- 19 --- | SW 7 --- | 0.0 | 1014 | 1.1
23:00 Uhr | wolkig | 17 --- --- 16 19 | SW 6 --- | 0.0 0.0 | 1015 | 0.2 6.4
Montag - 02.09.2019
| Wetter - | Temperaturen | Wind | Niederschlag | Druck | Sonne
Zeit GZ | Bewölkung | TT MAX MIN TG TM | DD FF FX3 | RR3 RR24 | PPPP | SS3 SS24
02:00 Uhr | wolkig | 15 --- --- 13 --- | S 4 --- | 0.0 | 1016 | 0.0
05:00 Uhr | wolkig | 14 --- --- 12 --- | S 4 --- | 0.0 | 1016 | 0.0
08:00 Uhr | wolkig | 15 --- 13 15 --- | S 6 --- | 0.0 | 1016 | 0.4
11:00 Uhr | wolkig | 19 --- --- 22 --- | S 9 --- | 0.0 | 1017 | 1.6
14:00 Uhr | wolkig | 22 --- --- 26 --- | SW 9 --- | 0.0 | 1016 | 2.0
17:00 Uhr | wolkig | 24 --- --- 26 --- | W 9 --- | 0.0 | 1016 | 1.9
20:00 Uhr | wolkig | 20 25 --- 19 --- | W 7 --- | 0.0 | 1016 | 1.1
23:00 Uhr | wolkig | 16 --- --- 14 18 | SW 6 --- | 0.0 0.0 | 1017 | 0.1 7.1
Dienstag - 03.09.2019
| Wetter - | Temperaturen | Wind | Niederschlag | Druck | Sonne
Zeit GZ | Bewölkung | TT MAX MIN TG TM | DD FF FX3 | RR3 RR24 | PPPP | SS3 SS24
02:00 Uhr | wolkig | 14 --- --- 13 --- | S 6 --- | 0.0 | 1018 | 0.0
05:00 Uhr | wolkig | 13 --- --- 12 --- | S 4 --- | 0.0 | 1018 | 0.0
08:00 Uhr | wolkig | 14 --- 12 14 --- | W 4 --- | 0.0 | 1019 | 0.3
11:00 Uhr | wolkig | 18 --- --- 21 --- | S 7 --- | 0.0 | 1019 | 1.4
14:00 Uhr | wolkig | 22 --- --- 25 --- | SW 9 --- | 0.0 | 1018 | 1.9
17:00 Uhr | wolkig | 22 --- --- 24 --- | SW 9 --- | 0.0 | 1018 | 1.5
20:00 Uhr | wolkig | 20 24 --- 19 --- | S 6 --- | 0.0 | 1018 | 1.0
23:00 Uhr | wolkig | 16 --- --- 15 17 | S 4 --- | 0.0 0.0 | 1019 | 0.1 6.1
Mittwoch - 04.09.2019
| Wetter - | Temperaturen | Wind | Niederschlag | Druck | Sonne
Zeit GZ | Bewölkung | TT MAX MIN TG TM | DD FF FX3 | RR3 RR24 | PPPP | SS3 SS24
02:00 Uhr | wolkig | 14 --- --- 13 --- | SO 4 --- | 0.0 | 1020 | 0.0
05:00 Uhr | wolkig | 13 --- --- 12 --- | S 4 --- | 0.0 | 1019 | 0.0
08:00 Uhr | wolkig | 14 --- 12 14 --- | S 4 --- | 0.0 | 1019 | 0.3
11:00 Uhr | wolkig | 18 --- --- 20 --- | S 7 --- | 0.0 | 1020 | 1.4
14:00 Uhr | wolkig | 22 --- --- 24 --- | S 9 --- | 0.0 | 1019 | 1.8
17:00 Uhr | wolkig | 23 --- --- 24 --- | SW 9 --- | 0.0 | 1018 | 1.7
20:00 Uhr | wolkig | 19 23 --- 17 --- | NW 7 --- | 0.0 | 1019 | 1.2
23:00 Uhr | wolkig | 16 --- --- 13 17 | N 6 --- | 0.0 0.0 | 1020 | 0.0 6.4
Donnerstag - 05.09.2019
| Wetter - | Temperaturen | Wind | Niederschlag | Druck | Sonne
Zeit GZ | Bewölkung | TT MAX MIN TG TM | DD FF FX3 | RR3 RR24 | PPPP | SS3 SS24
02:00 Uhr | wolkig | 14 --- --- 11 --- | N 6 --- | 0.0 | 1020 | 0.0
05:00 Uhr | wolkig | 13 --- --- 10 --- | SW 6 --- | 0.0 | 1020 | 0.0
---:00 Uhr | --- | --- --- --- --- --- | --- --- --- | --- | --- | ---
---:00 Uhr | --- | --- --- --- --- --- | --- --- --- | --- | --- | ---
---:00 Uhr | --- | --- --- --- --- --- | --- --- --- | --- | --- | ---
---:00 Uhr | --- | --- --- --- --- --- | --- --- --- | --- | --- | ---
---:00 Uhr | --- | --- --- --- --- --- | --- --- --- | --- | --- | ---
---:00 Uhr | --- | --- --- --- --- --- | --- --- --- | --- --- | --- | ---


Wetter : Wetter/Bewölkung zum Termin (aktuelle Stunde) TT : Lufttemperatur in Grad Celsius zum Termin MAX : Maximum Lufttemperatur in Grad Celsius letzte 12 Stunden MIN : Minimum Lufttemperatur der vergangenen Nacht in Grad Celsius letzte 12 Stunden TG : Temperatur in 5cm überm Erdboden TM : Tagesmittel Lufttemperatur in Grad Celsius letzte 24 Stunden DD : Windrichtung zum Termin FF : Windgeschwindigkeit zum Termin FX1 : höchste Windspitze im Bezugszeitraum letzte 1 Stunde in km/h FX3 : höchste Windspitze im Bezugszeitraum letzte 3 Stunden in km/h PPPP : reduzierter Luftdruck auf Meereshöhe in hPa zum Termin RR1 : Niederschlagsmenge im Bezugszeitraum letzte 1 Stunde in mm = l/qm RR3 : Niederschlagsmenge im Bezugszeitraum letzte 3 Stunden in mm = l/qm RR24 : Niederschlagsmenge im Bezugszeitraum letzte 24 Stunden in mm = l/qm SS1 : Sonnenscheindauer letzte 1 Stunde SS3 : Sonnenscheindauer letzte 3 Stunden SS24 : Sonnenscheindauer letzte 24 Stunden --- : Wert nicht vorhanden